Year,Month,Day,Hour,Minute,Value (Times are PST for temperature in C)
2010,02,21,00,01,3.60
2010,02,21,00,02,3.70
2010,02,21,00,03,3.70
2010,02,21,00,05,3.70
2010,02,21,00,06,3.70
2010,02,21,00,07,3.70
2010,02,21,00,08,3.70
2010,02,21,00,10,3.80
2010,02,21,00,12,3.80
2010,02,21,00,13,3.80
2010,02,21,00,14,3.90
2010,02,21,00,15,3.90
2010,02,21,00,17,3.90
2010,02,21,00,18,4.00
2010,02,21,00,20,4.10
2010,02,21,00,21,4.20
2010,02,21,00,23,4.20
2010,02,21,00,24,4.30
2010,02,21,00,25,4.30
2010,02,21,00,26,4.30
2010,02,21,00,28,4.30
2010,02,21,00,30,4.40
2010,02,21,00,31,4.40
2010,02,21,00,32,4.40
2010,02,21,00,33,4.40
2010,02,21,00,34,4.40
2010,02,21,00,36,4.30
2010,02,21,00,37,4.30
2010,02,21,00,38,4.30
2010,02,21,00,40,4.30
2010,02,21,00,42,4.30
2010,02,21,00,43,4.40
2010,02,21,00,44,4.30
2010,02,21,00,45,4.30
2010,02,21,00,46,4.30
2010,02,21,00,48,4.30
2010,02,21,00,49,4.20
2010,02,21,00,50,4.20
2010,02,21,00,51,4.20
2010,02,21,00,52,4.20
2010,02,21,00,54,4.30
2010,02,21,00,55,4.30
2010,02,21,00,56,4.20
2010,02,21,00,57,4.20
2010,02,21,00,58,4.20
2010,02,21,01,00,4.20
2010,02,21,01,02,4.20
2010,02,21,01,03,4.20
2010,02,21,01,04,4.20
2010,02,21,01,06,4.10
2010,02,21,01,07,4.10
2010,02,21,01,08,4.10
2010,02,21,01,10,4.10
2010,02,21,01,12,4.10
2010,02,21,01,13,4.10
2010,02,21,01,14,4.10
2010,02,21,01,15,4.10
2010,02,21,01,16,4.10
2010,02,21,01,17,4.10
2010,02,21,01,19,4.10
2010,02,21,01,20,4.20
2010,02,21,01,21,4.20
2010,02,21,01,22,4.20
2010,02,21,01,24,4.20
2010,02,21,01,25,4.20
2010,02,21,01,26,4.20
2010,02,21,01,27,4.20
2010,02,21,01,28,4.20
2010,02,21,01,30,4.30
2010,02,21,01,32,4.30
2010,02,21,01,33,4.30
2010,02,21,01,34,4.30
2010,02,21,01,35,4.40
2010,02,21,01,36,4.40
2010,02,21,01,38,4.40
2010,02,21,01,40,4.40
2010,02,21,01,41,4.50
2010,02,21,01,42,4.60
2010,02,21,01,44,4.60
2010,02,21,01,45,4.70
2010,02,21,01,46,4.80
2010,02,21,01,47,4.80
2010,02,21,01,48,4.80
2010,02,21,01,50,4.80
2010,02,21,01,51,4.90
2010,02,21,01,52,4.90
2010,02,21,01,53,4.90
2010,02,21,01,54,4.90
2010,02,21,01,56,5.00
2010,02,21,01,57,5.00
2010,02,21,01,58,5.00
2010,02,21,02,00,5.00
2010,02,21,02,02,4.90
2010,02,21,02,03,4.90
2010,02,21,02,04,4.90
2010,02,21,02,05,4.90
2010,02,21,02,06,4.90
2010,02,21,02,08,4.90
2010,02,21,02,09,4.90
2010,02,21,02,10,4.90
2010,02,21,02,11,4.90
2010,02,21,02,12,4.90
2010,02,21,02,13,4.90
2010,02,21,02,14,4.90
2010,02,21,02,15,4.80
2010,02,21,02,16,4.80
2010,02,21,02,18,4.70
2010,02,21,02,19,4.70
2010,02,21,02,20,4.70
2010,02,21,02,21,4.70
2010,02,21,02,22,4.70
2010,02,21,02,24,4.70
2010,02,21,02,25,4.70
2010,02,21,02,26,4.70
2010,02,21,02,27,4.70
2010,02,21,02,29,4.70
2010,02,21,02,30,4.70
2010,02,21,02,31,4.60
2010,02,21,02,32,4.60
2010,02,21,02,33,4.60
2010,02,21,02,35,4.60
2010,02,21,02,36,4.60
2010,02,21,02,37,4.60
2010,02,21,02,38,4.60
2010,02,21,02,40,4.60
2010,02,21,02,42,4.60
2010,02,21,02,43,4.60
2010,02,21,02,44,4.60
2010,02,21,02,45,4.60
2010,02,21,02,47,4.50
2010,02,21,02,48,4.40
2010,02,21,02,50,4.40
2010,02,21,02,52,4.40
2010,02,21,02,53,4.40
2010,02,21,02,54,4.30
2010,02,21,02,55,4.40
2010,02,21,02,56,4.40
2010,02,21,02,58,4.30
2010,02,21,02,59,4.30
2010,02,21,03,00,4.30
2010,02,21,03,01,4.30
2010,02,21,03,02,4.30
2010,02,21,03,04,4.30
2010,02,21,03,05,4.30
2010,02,21,03,06,4.30
2010,02,21,03,07,4.30
2010,02,21,03,08,4.30
2010,02,21,03,10,4.20
2010,02,21,03,11,4.20
2010,02,21,03,12,4.20
2010,02,21,03,13,4.20
2010,02,21,03,14,4.30
2010,02,21,03,16,4.30
2010,02,21,03,17,4.30
2010,02,21,03,18,4.30
2010,02,21,03,20,4.30
2010,02,21,03,21,4.30
2010,02,21,03,22,4.30
2010,02,21,03,23,4.30
2010,02,21,03,24,4.30
2010,02,21,03,26,4.20
2010,02,21,03,27,4.20
2010,02,21,03,28,4.20
2010,02,21,03,31,4.20
2010,02,21,03,32,4.10
2010,02,21,03,33,4.10
2010,02,21,03,34,4.10
2010,02,21,03,36,4.10
2010,02,21,03,37,4.00
2010,02,21,03,38,4.00
2010,02,21,03,40,3.90
2010,02,21,03,42,3.90
2010,02,21,03,43,3.90
2010,02,21,03,44,3.90
2010,02,21,03,45,3.80
2010,02,21,03,47,3.80
2010,02,21,03,48,3.80
2010,02,21,03,50,3.80
2010,02,21,03,52,3.80
2010,02,21,03,53,3.80
2010,02,21,03,54,3.80
2010,02,21,03,55,3.80
2010,02,21,03,57,3.80
2010,02,21,03,58,3.80
2010,02,21,04,00,3.80
2010,02,21,04,01,3.80
2010,02,21,04,03,3.80
2010,02,21,04,04,3.80
2010,02,21,04,05,3.70
2010,02,21,04,06,3.70
2010,02,21,04,07,3.70
2010,02,21,04,09,3.70
2010,02,21,04,10,3.70
2010,02,21,04,11,3.70
2010,02,21,04,12,3.70
2010,02,21,04,14,3.70
2010,02,21,04,15,3.60
2010,02,21,04,16,3.70
2010,02,21,04,17,3.60
2010,02,21,04,18,3.60
2010,02,21,04,19,3.60
2010,02,21,04,22,3.60
2010,02,21,04,23,3.60
2010,02,21,04,24,3.60
2010,02,21,04,25,3.60
2010,02,21,04,27,3.60
2010,02,21,04,28,3.60
2010,02,21,04,30,3.60
2010,02,21,04,31,3.50
2010,02,21,04,32,3.50
2010,02,21,04,33,3.50
2010,02,21,04,34,3.50
2010,02,21,04,36,3.50
2010,02,21,04,37,3.50
2010,02,21,04,38,3.50
2010,02,21,04,39,3.40
2010,02,21,04,41,3.40
2010,02,21,04,42,3.30
2010,02,21,04,43,3.30
2010,02,21,04,44,3.30
2010,02,21,04,46,3.30
2010,02,21,04,47,3.30
2010,02,21,04,48,3.30
2010,02,21,04,49,3.30
2010,02,21,04,52,3.40
2010,02,21,04,53,3.40
2010,02,21,04,54,3.40
2010,02,21,04,55,3.40
2010,02,21,04,57,3.40
2010,02,21,04,58,3.40
2010,02,21,05,00,3.40
2010,02,21,05,01,3.40
2010,02,21,05,03,3.40
2010,02,21,05,04,3.40
2010,02,21,05,05,3.40
2010,02,21,05,06,3.50
2010,02,21,05,07,3.40
2010,02,21,05,08,3.40
2010,02,21,05,10,3.40
2010,02,21,05,11,3.40
2010,02,21,05,12,3.40
2010,02,21,05,13,3.50
2010,02,21,05,14,3.50
2010,02,21,05,16,3.50
2010,02,21,05,17,3.50
2010,02,21,05,18,3.60
2010,02,21,05,20,3.60
2010,02,21,05,22,3.60
2010,02,21,05,23,3.60
2010,02,21,05,24,3.60
2010,02,21,05,25,3.60
2010,02,21,05,26,3.60
2010,02,21,05,27,3.60
2010,02,21,05,29,3.60
2010,02,21,05,30,3.60
2010,02,21,05,31,3.60
2010,02,21,05,32,3.60
2010,02,21,05,33,3.60
2010,02,21,05,34,3.60
2010,02,21,05,36,3.60
2010,02,21,05,37,3.60
2010,02,21,05,38,3.50
2010,02,21,05,39,3.50
2010,02,21,05,42,3.50
2010,02,21,05,43,3.50
2010,02,21,05,44,3.50
2010,02,21,05,45,3.50
2010,02,21,05,47,3.40
2010,02,21,05,48,3.40
2010,02,21,05,50,3.40
2010,02,21,05,51,3.40
2010,02,21,05,53,3.40
2010,02,21,05,54,3.40
2010,02,21,05,55,3.30
2010,02,21,05,56,3.30
2010,02,21,05,57,3.30
2010,02,21,05,59,3.30
2010,02,21,06,00,3.30
2010,02,21,06,01,3.30
2010,02,21,06,02,3.30
2010,02,21,06,04,3.30
2010,02,21,06,05,3.30
2010,02,21,06,06,3.30
2010,02,21,06,07,3.30
2010,02,21,06,09,3.30
2010,02,21,06,10,3.30
2010,02,21,06,11,3.40
2010,02,21,06,12,3.40
2010,02,21,06,13,3.40
2010,02,21,06,15,3.40
2010,02,21,06,16,3.40
2010,02,21,06,17,3.40
2010,02,21,06,18,3.40
2010,02,21,06,20,3.40
2010,02,21,06,21,3.40
2010,02,21,06,22,3.40
2010,02,21,06,23,3.40
2010,02,21,06,24,3.40
2010,02,21,06,26,3.40
2010,02,21,06,27,3.40
2010,02,21,06,28,3.40
2010,02,21,06,29,3.40
2010,02,21,06,31,3.40
2010,02,21,06,33,3.40
2010,02,21,06,34,3.30
2010,02,21,06,35,3.30
2010,02,21,06,36,3.30
2010,02,21,06,37,3.30
2010,02,21,06,39,3.20
2010,02,21,06,40,3.20
2010,02,21,06,41,3.20
2010,02,21,06,42,3.20
2010,02,21,06,44,3.20
2010,02,21,06,45,3.20
2010,02,21,06,46,3.20
2010,02,21,06,47,3.20
2010,02,21,06,48,3.10
2010,02,21,06,49,3.10
2010,02,21,06,51,3.10
2010,02,21,06,52,3.10
2010,02,21,06,53,3.00
2010,02,21,06,54,3.00
2010,02,21,06,56,2.90
2010,02,21,06,57,2.90
2010,02,21,06,58,2.90
2010,02,21,07,00,2.90
2010,02,21,07,03,2.90
2010,02,21,07,04,2.90
2010,02,21,07,05,2.90
2010,02,21,07,06,2.90
2010,02,21,07,08,2.90
2010,02,21,07,09,2.90
2010,02,21,07,10,2.90
2010,02,21,07,11,2.90
2010,02,21,07,12,2.90
2010,02,21,07,14,2.90
2010,02,21,07,15,3.00
2010,02,21,07,16,3.00
2010,02,21,07,17,3.10
2010,02,21,07,19,3.10
2010,02,21,07,20,3.10
2010,02,21,07,21,3.10
2010,02,21,07,22,3.10
2010,02,21,07,24,3.20
2010,02,21,07,25,3.20
2010,02,21,07,26,3.20
2010,02,21,07,27,3.20
2010,02,21,07,28,3.20
2010,02,21,07,30,3.20
2010,02,21,07,32,3.30
2010,02,21,07,33,3.30
2010,02,21,07,34,3.30
2010,02,21,07,36,3.40
2010,02,21,07,37,3.40
2010,02,21,07,38,3.40
2010,02,21,07,40,3.40
2010,02,21,07,42,3.40
2010,02,21,07,43,3.40
2010,02,21,07,44,3.40
2010,02,21,07,45,3.30
2010,02,21,07,47,3.30
2010,02,21,07,48,3.20
2010,02,21,07,50,3.10
2010,02,21,07,52,2.90
2010,02,21,07,53,2.80
2010,02,21,07,54,2.80
2010,02,21,07,55,2.70
2010,02,21,07,56,2.70
2010,02,21,07,58,2.70
2010,02,21,08,00,2.80
2010,02,21,08,03,3.10
2010,02,21,08,04,3.10
2010,02,21,08,05,3.20
2010,02,21,08,06,3.30
2010,02,21,08,07,3.30
2010,02,21,08,09,3.40
2010,02,21,08,10,3.40
2010,02,21,08,11,3.50
2010,02,21,08,12,3.60
2010,02,21,08,14,3.70
2010,02,21,08,15,3.70
2010,02,21,08,16,3.80
2010,02,21,08,17,3.80
2010,02,21,08,19,3.90
2010,02,21,08,20,3.90
2010,02,21,08,21,3.90
2010,02,21,08,22,4.00
2010,02,21,08,23,4.00
2010,02,21,08,25,4.10
2010,02,21,08,26,4.10
2010,02,21,08,27,4.10
2010,02,21,08,28,4.20
2010,02,21,08,29,4.20
2010,02,21,08,32,4.30
2010,02,21,08,33,4.30
2010,02,21,08,34,4.40
2010,02,21,08,35,4.40
2010,02,21,08,37,4.40
2010,02,21,08,38,4.50
2010,02,21,08,40,4.60
2010,02,21,08,41,4.70
2010,02,21,08,43,4.70
2010,02,21,08,44,4.70
2010,02,21,08,45,4.80
2010,02,21,08,46,4.80
2010,02,21,08,47,4.80
2010,02,21,08,49,4.90
2010,02,21,08,50,4.90
2010,02,21,08,51,5.00
2010,02,21,08,52,5.10
2010,02,21,08,53,5.10
2010,02,21,08,55,5.10
2010,02,21,08,56,5.20
2010,02,21,08,57,5.20
2010,02,21,08,58,5.30
2010,02,21,09,00,5.30
2010,02,21,09,02,5.40
2010,02,21,09,03,5.40
2010,02,21,09,04,5.50
2010,02,21,09,05,5.50
2010,02,21,09,07,5.60
2010,02,21,09,08,5.60
2010,02,21,09,10,5.70
2010,02,21,09,12,5.70
2010,02,21,09,13,5.80
2010,02,21,09,14,5.80
2010,02,21,09,15,5.90
2010,02,21,09,16,5.90
2010,02,21,09,18,5.90
2010,02,21,09,19,6.00
2010,02,21,09,20,6.10
2010,02,21,09,21,6.10
2010,02,21,09,22,6.20
2010,02,21,09,23,6.20
2010,02,21,09,25,6.20
2010,02,21,09,26,6.20
2010,02,21,09,27,6.20
2010,02,21,09,28,6.30
2010,02,21,09,30,6.30
2010,02,21,09,32,6.30
2010,02,21,09,33,6.40
2010,02,21,09,34,6.40
2010,02,21,09,35,6.40
2010,02,21,09,37,6.50
2010,02,21,09,38,6.50
2010,02,21,09,40,6.60
2010,02,21,09,41,6.60
2010,02,21,09,43,6.70
2010,02,21,09,44,6.70
2010,02,21,09,45,6.80
2010,02,21,09,46,6.80
2010,02,21,09,47,6.80
2010,02,21,09,49,6.90
2010,02,21,09,50,6.90
2010,02,21,09,51,7.00
2010,02,21,09,52,7.00
2010,02,21,09,53,7.10
2010,02,21,09,55,7.10
2010,02,21,09,56,7.10
2010,02,21,09,57,7.20
2010,02,21,09,58,7.20
2010,02,21,10,00,7.30
2010,02,21,10,01,7.30
2010,02,21,10,02,7.40
2010,02,21,10,03,7.40
2010,02,21,10,04,7.40
2010,02,21,10,06,7.40
2010,02,21,10,07,7.50
2010,02,21,10,08,7.60
2010,02,21,10,09,7.60
2010,02,21,10,12,7.60
2010,02,21,10,13,7.60
2010,02,21,10,14,7.60
2010,02,21,10,15,7.60
2010,02,21,10,17,7.70
2010,02,21,10,18,7.70
2010,02,21,10,20,7.70
2010,02,21,10,21,7.80
2010,02,21,10,22,7.80
2010,02,21,10,24,7.80
2010,02,21,10,25,7.80
2010,02,21,10,26,7.80
2010,02,21,10,27,7.70
2010,02,21,10,28,7.70
2010,02,21,10,30,7.70
2010,02,21,10,31,7.70
2010,02,21,10,32,7.70
2010,02,21,10,33,7.80
2010,02,21,10,34,7.80
2010,02,21,10,36,7.80
2010,02,21,10,37,7.80
2010,02,21,10,38,7.90
2010,02,21,10,39,7.90
2010,02,21,10,41,8.00
2010,02,21,10,42,8.10
2010,02,21,10,43,8.00
2010,02,21,10,44,8.10
2010,02,21,10,46,8.10
2010,02,21,10,47,8.10
2010,02,21,10,48,8.20
2010,02,21,10,50,8.20
2010,02,21,10,51,8.20
2010,02,21,10,52,8.30
2010,02,21,10,53,8.30
2010,02,21,10,54,8.40
2010,02,21,10,56,8.40
2010,02,21,10,57,8.60
2010,02,21,10,58,8.60
2010,02,21,11,00,8.70
2010,02,21,11,02,8.70
2010,02,21,11,03,8.70
2010,02,21,11,04,8.80
2010,02,21,11,05,8.80
2010,02,21,11,07,8.80
2010,02,21,11,08,8.80
2010,02,21,11,10,8.90
2010,02,21,11,11,8.90
2010,02,21,11,12,8.90
2010,02,21,11,14,9.00
2010,02,21,11,15,9.00
2010,02,21,11,16,9.10
2010,02,21,11,17,9.10
2010,02,21,11,18,9.20
2010,02,21,11,20,9.20
2010,02,21,11,21,9.20
2010,02,21,11,22,9.30
2010,02,21,11,23,9.30
2010,02,21,11,24,9.40
2010,02,21,11,26,9.40
2010,02,21,11,27,9.40
2010,02,21,11,28,9.40
2010,02,21,11,31,9.40
2010,02,21,11,33,9.40
2010,02,21,11,34,9.50
2010,02,21,11,35,9.60
2010,02,21,11,36,9.60
2010,02,21,11,38,9.60
2010,02,21,11,40,9.70
2010,02,21,11,41,9.70
2010,02,21,11,42,9.70
2010,02,21,11,44,9.70
2010,02,21,11,45,9.70
2010,02,21,11,46,9.70
2010,02,21,11,47,9.80
2010,02,21,11,49,9.80
2010,02,21,11,50,9.80
2010,02,21,11,51,9.80
2010,02,21,11,52,9.80
2010,02,21,11,54,9.90
2010,02,21,11,55,9.90
2010,02,21,11,56,10.00
2010,02,21,11,57,10.00
2010,02,21,11,58,10.10
2010,02,21,12,00,10.10
2010,02,21,12,01,10.10
2010,02,21,12,02,10.10
2010,02,21,12,03,10.10
2010,02,21,12,05,10.10
2010,02,21,12,06,10.20
2010,02,21,12,07,10.20
2010,02,21,12,08,10.20
2010,02,21,12,10,10.20
2010,02,21,12,11,10.30
2010,02,21,12,12,10.30
2010,02,21,12,13,10.40
2010,02,21,12,14,10.50
2010,02,21,12,16,10.60
2010,02,21,12,17,10.60
2010,02,21,12,18,10.60
2010,02,21,12,20,10.60
2010,02,21,12,22,10.40
2010,02,21,12,23,10.40
2010,02,21,12,24,10.40
2010,02,21,12,25,10.40
2010,02,21,12,26,10.40
2010,02,21,12,28,10.30
2010,02,21,12,30,10.40
2010,02,21,12,31,10.50
2010,02,21,12,32,10.50
2010,02,21,12,33,10.60
2010,02,21,12,35,10.60
2010,02,21,12,36,10.60
2010,02,21,12,37,10.60
2010,02,21,12,38,10.60
2010,02,21,12,40,10.70
2010,02,21,12,42,10.80
2010,02,21,12,43,10.80
2010,02,21,12,44,10.80
2010,02,21,12,45,10.80
2010,02,21,12,47,10.70
2010,02,21,12,48,10.80
2010,02,21,12,50,10.80
2010,02,21,12,51,10.80
2010,02,21,12,53,10.80
2010,02,21,12,54,10.80
2010,02,21,12,55,10.70
2010,02,21,12,56,10.70
2010,02,21,12,57,10.70
2010,02,21,12,59,10.70
2010,02,21,13,00,10.70
2010,02,21,13,02,10.70
2010,02,21,13,03,10.80
2010,02,21,13,05,10.80
2010,02,21,13,06,10.80
2010,02,21,13,07,10.80
2010,02,21,13,08,10.80
2010,02,21,13,10,10.80
2010,02,21,13,12,10.90
2010,02,21,13,13,10.90
2010,02,21,13,14,11.00
2010,02,21,13,15,11.10
2010,02,21,13,17,11.20
2010,02,21,13,18,11.30
2010,02,21,13,20,11.30
2010,02,21,13,21,11.30
2010,02,21,13,23,11.20
2010,02,21,13,24,11.20
2010,02,21,13,25,11.20
2010,02,21,13,26,11.20
2010,02,21,13,28,11.20
2010,02,21,13,29,11.30
2010,02,21,13,30,11.40
2010,02,21,13,31,11.40
2010,02,21,13,32,11.40
2010,02,21,13,33,11.30
2010,02,21,13,35,11.30
2010,02,21,13,36,11.30
2010,02,21,13,37,11.30
2010,02,21,13,38,11.30
2010,02,21,13,40,11.40
2010,02,21,13,41,11.40
2010,02,21,13,42,11.40
2010,02,21,13,43,11.40
2010,02,21,13,45,11.40
2010,02,21,13,46,11.50
2010,02,21,13,47,11.60
2010,02,21,13,48,11.60
2010,02,21,13,50,11.60
2010,02,21,13,52,11.60
2010,02,21,13,53,11.60
2010,02,21,13,54,11.60
2010,02,21,13,55,11.60
2010,02,21,13,56,11.60
2010,02,21,13,58,11.50
2010,02,21,14,00,11.50
2010,02,21,14,01,11.60
2010,02,21,14,03,11.60
2010,02,21,14,04,11.60
2010,02,21,14,05,11.70
2010,02,21,14,06,11.80
2010,02,21,14,07,11.80
2010,02,21,14,09,11.70
2010,02,21,14,10,11.70
2010,02,21,14,11,11.60
2010,02,21,14,12,11.60
2010,02,21,14,13,11.60
2010,02,21,14,15,11.60
2010,02,21,14,16,11.60
2010,02,21,14,17,11.50
2010,02,21,14,18,11.40
2010,02,21,14,19,11.40
2010,02,21,14,22,11.40
2010,02,21,14,23,11.60
2010,02,21,14,24,11.60
2010,02,21,14,25,11.50
2010,02,21,14,27,11.50
2010,02,21,14,28,11.60
2010,02,21,14,30,11.60
2010,02,21,14,32,11.60
2010,02,21,14,34,11.60
2010,02,21,14,35,11.60
2010,02,21,14,36,11.50
2010,02,21,14,37,11.50
2010,02,21,14,38,11.50
2010,02,21,14,40,11.50
2010,02,21,14,41,11.40
2010,02,21,14,42,11.50
2010,02,21,14,43,11.60
2010,02,21,14,44,11.60
2010,02,21,14,45,11.60
2010,02,21,14,47,11.60
2010,02,21,14,48,11.70
2010,02,21,14,49,11.70
2010,02,21,14,52,11.60
2010,02,21,14,53,11.60
2010,02,21,14,54,11.60
2010,02,21,14,55,11.50
2010,02,21,14,56,11.50
2010,02,21,14,58,11.50
2010,02,21,14,59,11.50
2010,02,21,15,00,11.50
2010,02,21,15,02,11.40
2010,02,21,15,03,11.40
2010,02,21,15,05,11.40
2010,02,21,15,06,11.40
2010,02,21,15,07,11.40
2010,02,21,15,08,11.40
2010,02,21,15,09,11.40
2010,02,21,15,12,11.40
2010,02,21,15,13,11.40
2010,02,21,15,14,11.40
2010,02,21,15,15,11.40
2010,02,21,15,16,11.40
2010,02,21,15,18,11.40
2010,02,21,15,20,11.40
2010,02,21,15,21,11.30
2010,02,21,15,23,11.30
2010,02,21,15,24,11.30
2010,02,21,15,25,11.30
2010,02,21,15,26,11.40
2010,02,21,15,27,11.40
2010,02,21,15,29,11.40
2010,02,21,15,30,11.40
2010,02,21,15,31,11.40
2010,02,21,15,32,11.40
2010,02,21,15,33,11.40
2010,02,21,15,34,11.40
2010,02,21,15,36,11.50
2010,02,21,15,37,11.60
2010,02,21,15,38,11.60
2010,02,21,15,39,11.60
2010,02,21,15,42,11.70
2010,02,21,15,43,11.70
2010,02,21,15,44,11.70
2010,02,21,15,45,11.70
2010,02,21,15,50,11.80
2010,02,21,15,52,11.80
2010,02,21,15,53,11.80
2010,02,21,15,54,11.80
2010,02,21,15,55,11.80
2010,02,21,15,57,11.80
2010,02,21,15,58,11.80
2010,02,21,16,00,11.70
2010,02,21,16,03,11.70
2010,02,21,16,04,11.70
2010,02,21,16,05,11.70
2010,02,21,16,06,11.70
2010,02,21,16,07,11.70
2010,02,21,16,09,11.70
2010,02,21,16,10,11.70
2010,02,21,16,11,11.70
2010,02,21,16,12,11.60
2010,02,21,16,13,11.60
2010,02,21,16,15,11.60
2010,02,21,16,16,11.60
2010,02,21,16,17,11.50
2010,02,21,16,18,11.50
2010,02,21,16,20,11.40
2010,02,21,16,22,11.40
2010,02,21,16,23,11.40
2010,02,21,16,24,11.30
2010,02,21,16,25,11.30
2010,02,21,16,27,11.30
2010,02,21,16,28,11.20
2010,02,21,16,29,11.20
2010,02,21,16,30,11.20
2010,02,21,16,32,11.10
2010,02,21,16,33,11.10
2010,02,21,16,34,11.10
2010,02,21,16,35,11.00
2010,02,21,16,36,11.00
2010,02,21,16,38,10.90
2010,02,21,16,39,10.90
2010,02,21,16,40,10.90
2010,02,21,16,41,10.90
2010,02,21,16,42,10.90
2010,02,21,16,43,10.80
2010,02,21,16,45,10.80
2010,02,21,16,46,10.80
2010,02,21,16,47,10.80
2010,02,21,16,48,10.70
2010,02,21,16,50,10.70
2010,02,21,16,51,10.70
2010,02,21,16,52,10.60
2010,02,21,16,53,10.60
2010,02,21,16,54,10.60
2010,02,21,16,56,10.50
2010,02,21,16,57,10.40
2010,02,21,16,58,10.40
2010,02,21,17,00,10.30
2010,02,21,17,02,10.20
2010,02,21,17,03,10.20
2010,02,21,17,04,10.10
2010,02,21,17,05,10.10
2010,02,21,17,06,10.00
2010,02,21,17,08,9.90
2010,02,21,17,10,9.80
2010,02,21,17,11,9.70
2010,02,21,17,13,9.70
2010,02,21,17,14,9.70
2010,02,21,17,15,9.60
2010,02,21,17,16,9.50
2010,02,21,17,17,9.40
2010,02,21,17,19,9.40
2010,02,21,17,20,9.30
2010,02,21,17,21,9.30
2010,02,21,17,22,9.20
2010,02,21,17,23,9.20
2010,02,21,17,25,9.10
2010,02,21,17,26,9.10
2010,02,21,17,27,9.00
2010,02,21,17,28,9.00
2010,02,21,17,30,8.90
2010,02,21,17,32,8.80
2010,02,21,17,33,8.70
2010,02,21,17,34,8.70
2010,02,21,17,35,8.60
2010,02,21,17,37,8.60
2010,02,21,17,38,8.50
2010,02,21,17,40,8.40
2010,02,21,17,42,8.40
2010,02,21,17,43,8.30
2010,02,21,17,44,8.20
2010,02,21,17,45,8.20
2010,02,21,17,46,8.20
2010,02,21,17,48,8.10
2010,02,21,17,50,8.10
2010,02,21,17,51,8.00
2010,02,21,17,52,7.90
2010,02,21,17,54,7.90
2010,02,21,17,55,7.80
2010,02,21,17,56,7.80
2010,02,21,17,57,7.80
2010,02,21,17,59,7.70
2010,02,21,18,00,7.70
2010,02,21,18,01,7.70
2010,02,21,18,02,7.60
2010,02,21,18,04,7.60
2010,02,21,18,05,7.50
2010,02,21,18,06,7.50
2010,02,21,18,07,7.40
2010,02,21,18,09,7.40
2010,02,21,18,10,7.40
2010,02,21,18,11,7.40
2010,02,21,18,12,7.30
2010,02,21,18,14,7.30
2010,02,21,18,15,7.30
2010,02,21,18,16,7.20
2010,02,21,18,17,7.10
2010,02,21,18,18,7.10
2010,02,21,18,20,7.10
2010,02,21,18,21,7.10
2010,02,21,18,22,7.00
2010,02,21,18,23,7.00
2010,02,21,18,24,6.90
2010,02,21,18,26,6.90
2010,02,21,18,27,6.90
2010,02,21,18,28,6.90
2010,02,21,18,30,6.80
2010,02,21,18,32,6.80
2010,02,21,18,33,6.80
2010,02,21,18,34,6.70
2010,02,21,18,35,6.70
2010,02,21,18,36,6.70
2010,02,21,18,38,6.70
2010,02,21,18,39,6.70
2010,02,21,18,40,6.60
2010,02,21,18,41,6.60
2010,02,21,18,42,6.60
2010,02,21,18,44,6.60
2010,02,21,18,45,6.60
2010,02,21,18,46,6.60
2010,02,21,18,47,6.60
2010,02,21,18,48,6.50
2010,02,21,18,50,6.50
2010,02,21,18,51,6.50
2010,02,21,18,52,6.60
2010,02,21,18,53,6.60
2010,02,21,18,54,6.60
2010,02,21,18,56,6.60
2010,02,21,18,57,6.60
2010,02,21,18,58,6.50
2010,02,21,18,59,6.50
2010,02,21,19,02,6.50
2010,02,21,19,03,6.40
2010,02,21,19,04,6.40
2010,02,21,19,05,6.40
2010,02,21,19,06,6.40
2010,02,21,19,07,6.40
2010,02,21,19,08,6.40
2010,02,21,19,10,6.40
2010,02,21,19,12,6.30
2010,02,21,19,13,6.30
2010,02,21,19,14,6.30
2010,02,21,19,15,6.30
2010,02,21,19,17,6.30
2010,02,21,19,18,6.30
2010,02,21,19,20,6.20
2010,02,21,19,21,6.20
2010,02,21,19,23,6.20
2010,02,21,19,24,6.20
2010,02,21,19,25,6.20
2010,02,21,19,26,6.20
2010,02,21,19,28,6.10
2010,02,21,19,30,6.10
2010,02,21,19,31,6.10
2010,02,21,19,32,6.10
2010,02,21,19,34,6.00
2010,02,21,19,35,6.00
2010,02,21,19,36,5.90
2010,02,21,19,37,5.90
2010,02,21,19,39,5.90
2010,02,21,19,40,5.90
2010,02,21,19,41,5.80
2010,02,21,19,42,5.80
2010,02,21,19,44,5.80
2010,02,21,19,45,5.80
2010,02,21,19,46,5.80
2010,02,21,19,47,5.70
2010,02,21,19,48,5.70
2010,02,21,19,50,5.70
2010,02,21,19,51,5.70
2010,02,21,19,52,5.70
2010,02,21,19,53,5.70
2010,02,21,19,54,5.60
2010,02,21,19,55,5.60
2010,02,21,19,57,5.60
2010,02,21,19,58,5.60
2010,02,21,20,00,5.60
2010,02,21,20,02,5.60
2010,02,21,20,03,5.60
2010,02,21,20,04,5.60
2010,02,21,20,06,5.60
2010,02,21,20,07,5.60
2010,02,21,20,08,5.50
2010,02,21,20,10,5.50
2010,02,21,20,12,5.50
2010,02,21,20,13,5.40
2010,02,21,20,14,5.40
2010,02,21,20,15,5.40
2010,02,21,20,17,5.40
2010,02,21,20,18,5.40
2010,02,21,20,20,5.30
2010,02,21,20,21,5.30
2010,02,21,20,23,5.30
2010,02,21,20,24,5.10
2010,02,21,20,25,5.10
2010,02,21,20,26,5.00
2010,02,21,20,28,4.90
2010,02,21,20,29,4.90
2010,02,21,20,30,4.90
2010,02,21,20,31,4.80
2010,02,21,20,32,4.80
2010,02,21,20,33,4.70
2010,02,21,20,35,4.70
2010,02,21,20,36,4.60
2010,02,21,20,37,4.60
2010,02,21,20,38,4.60
2010,02,21,20,40,4.50
2010,02,21,20,41,4.40
2010,02,21,20,42,4.30
2010,02,21,20,43,4.30
2010,02,21,20,45,4.20
2010,02,21,20,46,4.20
2010,02,21,20,47,4.10
2010,02,21,20,48,4.00
2010,02,21,20,49,3.90
2010,02,21,20,52,3.80
2010,02,21,20,53,3.80
2010,02,21,20,54,3.80
2010,02,21,20,55,3.70
2010,02,21,20,57,3.70
2010,02,21,20,58,3.70
2010,02,21,21,00,3.60
2010,02,21,21,01,3.60
2010,02,21,21,03,3.60
2010,02,21,21,04,3.60
2010,02,21,21,05,3.50
2010,02,21,21,06,3.60
2010,02,21,21,07,3.60
2010,02,21,21,09,3.60
2010,02,21,21,10,3.60
2010,02,21,21,12,3.60
2010,02,21,21,14,3.70
2010,02,21,21,15,3.70
2010,02,21,21,16,3.70
2010,02,21,21,17,3.70
2010,02,21,21,18,3.70
2010,02,21,21,20,3.70
2010,02,21,21,21,3.70
2010,02,21,21,23,3.70
2010,02,21,21,26,3.70
2010,02,21,21,27,3.60
2010,02,21,21,28,3.60
2010,02,21,21,29,3.60
2010,02,21,21,31,3.60
2010,02,21,21,32,3.60
2010,02,21,21,34,3.60
2010,02,21,21,35,3.50
2010,02,21,21,36,3.50
2010,02,21,21,37,3.40
2010,02,21,21,39,3.40
2010,02,21,21,40,3.40
2010,02,21,21,41,3.40
2010,02,21,21,42,3.40
2010,02,21,21,43,3.40
2010,02,21,21,45,3.40
2010,02,21,21,46,3.40
2010,02,21,21,47,3.40
2010,02,21,21,48,3.40
2010,02,21,21,50,3.30
2010,02,21,21,51,3.30
2010,02,21,21,52,3.30
2010,02,21,21,53,3.30
2010,02,21,21,55,3.30
2010,02,21,21,56,3.20
2010,02,21,21,57,3.20
2010,02,21,21,58,3.20
2010,02,21,21,59,3.20
2010,02,21,22,01,3.10
2010,02,21,22,02,3.10
2010,02,21,22,03,3.10
2010,02,21,22,04,3.10
2010,02,21,22,06,3.10
2010,02,21,22,07,3.10
2010,02,21,22,08,3.00
2010,02,21,22,10,3.00
2010,02,21,22,12,3.00
2010,02,21,22,13,2.90
2010,02,21,22,14,2.90
2010,02,21,22,15,2.90
2010,02,21,22,17,2.90
2010,02,21,22,18,2.90
2010,02,21,22,20,2.90
2010,02,21,22,22,2.90
2010,02,21,22,23,2.90
2010,02,21,22,24,2.80
2010,02,21,22,25,2.80
2010,02,21,22,26,2.80
2010,02,21,22,28,2.80
2010,02,21,22,29,2.80
2010,02,21,22,30,2.70
2010,02,21,22,31,2.70
2010,02,21,22,32,2.70
2010,02,21,22,33,2.70
2010,02,21,22,34,2.70
2010,02,21,22,36,2.70
2010,02,21,22,37,2.80
2010,02,21,22,38,2.80
2010,02,21,22,40,2.80
2010,02,21,22,41,2.80
2010,02,21,22,42,2.80
2010,02,21,22,43,2.80
2010,02,21,22,44,2.80
2010,02,21,22,46,2.80
2010,02,21,22,47,2.80
2010,02,21,22,48,2.90
2010,02,21,22,49,2.90
2010,02,21,22,51,3.00
2010,02,21,22,52,3.10
2010,02,21,22,53,3.10
2010,02,21,22,54,3.20
2010,02,21,22,56,3.20
2010,02,21,22,57,3.20
2010,02,21,22,58,3.30
2010,02,21,23,00,3.30
2010,02,21,23,02,3.30
2010,02,21,23,03,3.30
2010,02,21,23,04,3.30
2010,02,21,23,05,3.40
2010,02,21,23,06,3.40
2010,02,21,23,08,3.50
2010,02,21,23,10,3.60
2010,02,21,23,11,3.60
2010,02,21,23,13,3.60
2010,02,21,23,14,3.70
2010,02,21,23,15,3.70
2010,02,21,23,16,3.70
2010,02,21,23,17,3.70
2010,02,21,23,19,3.80
2010,02,21,23,20,3.80
2010,02,21,23,21,3.80
2010,02,21,23,22,3.80
2010,02,21,23,23,3.80
2010,02,21,23,25,3.80
2010,02,21,23,26,3.80
2010,02,21,23,27,3.80